EHI
0 0 0 0 0 0 0 0 0 0 0 0 0 0 0 0 0 0 0 0 0 0 0 0 0 0 0 0 0 0 0 0 0 0 0 0 0 0 0 0 0 0 0 0
0 0 0 0 0 0 0 0 0 0 0 0 0 0 0 0 0 0 0 0 0 0 0 0 0 0 0 0 0 0 0 0 0 0 0 0 0 0 0 0 0 0 0 0
0 0 0 0 0 0 0 0 0 0 0 0 0 0 0 0 0 0 0 0 0 0 0 0 0 0 0 0 0 0 0 0 0 0 0 0 0 0 0 0 0 0 0 0
0 0 0 0 0 0 0 0 0 0 0 0 0 0 0 0 0 0 0 0 0 0 0 0 0 0 0 0 0 0 0 0 0 0 0 0 0 0 0 0 0 0 0 0
0 0 0 0 0 0 0 0 0 0 0 0 0 0 0 0 0 0 0 0 0 0 0 0 0 0 0 0 0 0 0 0 0 0 0 0 0 0 0 0 0 0 0 0
0 0 0 0 0 0 0 0 0 0 0 0 0 0 0 0 0 0 0 0 0 0 0 0 0 0 0 0 0 0 0 0 0 0 0 0 0 0 0 0 0 0 0 0
0 0 0 0 0 0 0 0 0 0 0 0 0 0 0 0 0 0 0 0 0 0 0 0 0 0 0 0 0 0 0 0 0 0 0 0 0 0 0 0 0 0 0 0
0 0 0 0 0 0 0 0 0 0 0 0 0 0 0 0 0 0 0 0 0 0 0 0 0 0 0 0 0 0 0 0 0 0 0 0 0 0 0 0 0 0 0 0
0 0 0 0 0 0 0 0 0 0 0 0 0 0 0 0 0 0 0 0 0 0 0 0 0 0 0 0 0 0 0 0 0 0 0 0 0 0 0 0 0 0 0 0
0 0 0 0 0 0 0 0 0 0 0 0 0 0 0 0 0 0 0 0 0 0 0 0 0 0 0 0 0 0 0 0 0 0 0 0 0 0 0 0 0 0 0 0
0 0 0 0 0 0 0 0 0 0 0 0 0 0 0 0 0 0 0 0 0 0 0 0 0 0 0 0 0 0 0 0 0 0 0 0 0 0 0 0 0 0 0 0
0 0 0 0 0 0 0 0 0 0 0 0 0 0 0 0 0 0 0 0 0 0 0 0 0 0 0 0 0 0 0 0 0 0 0 0 0 0 0 0 0 0 0 0
0 0 0 0 0 0 0 0 0 0 0 0 0 0 0 0 0 0 0 0 0 0 0 0 0 0 0 0 0 0 0 0 0 0 0 0 0 0 0 0 0 0 0 0
0 0 0 0 0 0 0 0 0 0 0 0 0 0 0 0 0 0 0 0 0 0 0 0 0 0 0 0 0 0 0 0 0 0 0 0 0 0 0 0 0 0 0 0
0 0 0 0 0 0 0 0 0 0 0 0 0 0 0 0 0 0 0 0 0 0 0 0 0 0 0 0 0 0 0 0 0 0 0 0 0 0 0 0 0 0 0 0
0 0 0 0 0 0 0 0 0 0 0 0 0 0 0 0 0 0 0 0 0 0 0 0 0 0 0 0 0 0 0 0 0 0 0 0 0 0 0 0 0 0 0 0
0 0 0 0 0 0 0 0 0 0 0 0 0 0 0 0 0 0 0 0 0 0 0 0 0 0 0 0 0 0 0 0 0 0 0 0 0 0 0 0 0 0 0 0
0 0 0 0 0 0 0 0 0 0 0 0 0 0 0 0 0 0 0 0 0 0 0 0 0 0 0 0 0 0 0 0 0 0 0 0 0 0 0 0 0 0 0 0
0 0 0 0 0 0 0 0 0 0 0 0 0 0 0 0 0 0 0 0 0 0 0 0 0 0 0 0 0 0 0 0 0 0 0 0 0 0 0 0 0 0 0 0
0 0 0 0 0 0 0 0 0 0 0 0 0 0 0 0 0 0 0 0 0 0 0 0 0 0 0 0 0 0 0 0 0 0 0 0 0 0 0 0 0 0 0 0
0 0 0 0 0 0 0 0 0 0 0 0 0 0 0 0 0 0 0 0 0 0 0 0 0 0 0 0 0 0 0 0 0 0 0 0 0 0 0 0 0 0 0 0
0 0 0 0 0 0 0 0 0 0 0 0 0 0 0 0 0 0 0 0 0 0 0 0 0 0 0 0 0 0 0 0 0 0 0 0 0 0 0 0 0 0 0 0
0 0 0 0 0 0 0 0 0 0 0 0 0 0 0 0 0 0 0 0 0 0 0 0 0 0 0 0 0 0 0 0 0 0 0 0 0 0 0 0 0 0 0 0
0 0 0 0 0 0 0 0 0 0 0 0 0 0 0 0 0 0 0 0 0 0 0 0 0 0 0 0 0 0 0 0 0 0 0 0 0 0 0 0 0 0 0 0
0 0 0 0 0 0 0 0 0 0 0 0 0 0 0 0 0 0 0 0 0 0 0 0 0 0 0 0 0 0 0 0 0 0 0 0 0 0 0 0 0 0 0 0
0 0 0 0 0 0 0 0 0 0 0 0 0 0 0 0 0 0 0 0 0 0 0 0 0 0 0 0 0 0 0 0 0 0 0 0 0 0 0 0 0 0 0 0
Wind_Speed
6 8 5 5 3 0 2 1 3 3 3 5 11 11 6 4 8 9 9 10 11 11 11 12 11 10 10 11 10 10 10 10 8 6 7 7 8 9 9 9 13 15 16 14
8 6 6 3 5 5 3 2 3 6 6 6 12 9 6 6 8 9 9 10 10 11 13 14 14 13 13 13 12 12 11 11 10 6 4 3 3 4 5 6 9 12 15 15
7 4 5 5 7 7 4 1 2 5 6 4 11 5 5 6 10 11 9 9 10 12 12 14 13 12 13 14 15 14 14 15 13 10 5 4 3 4 5 8 11 12 16 16
6 6 6 6 5 5 5 5 5 5 3 4 3 4 3 4 10 12 10 10 11 12 11 12 13 13 14 13 12 13 14 14 14 11 7 7 6 5 5 7 9 14 15 16
4 4 6 6 6 4 7 9 6 3 4 2 3 5 0 3 8 9 9 10 11 12 12 12 12 13 12 12 11 12 13 13 13 11 10 8 7 6 7 8 10 11 13 15
3 2 3 4 4 3 6 7 4 5 5 2 2 6 3 4 4 5 7 9 11 12 11 10 11 13 12 11 11 13 14 12 12 12 12 10 10 12 14 13 12 11 11 11
9 6 6 4 7 8 9 8 8 9 6 3 4 8 4 3 3 5 6 8 9 10 9 10 14 16 15 13 14 14 15 15 14 14 14 12 11 12 13 14 13 14 12 12
8 7 7 6 3 4 5 5 5 2 5 7 4 5 5 3 2 3 4 6 9 11 9 12 14 16 15 15 15 16 16 15 16 16 15 13 12 11 11 13 14 14 12 14
4 6 6 5 3 2 4 3 1 3 3 5 2 4 5 2 4 6 7 9 11 10 9 11 12 14 15 14 14 15 17 17 18 18 17 14 14 14 15 16 16 13 14 15
1 4 5 7 4 5 2 3 5 3 4 7 5 1 3 7 8 8 9 10 9 9 10 11 13 16 16 15 16 17 18 18 19 18 16 15 15 16 16 15 17 17 18 18
3 0 6 5 5 5 5 5 5 2 1 3 6 3 3 4 5 7 8 9 10 11 12 13 14 15 16 17 17 17 17 17 18 18 17 16 15 16 16 15 17 17 17 18
3 3 4 5 4 3 4 4 3 1 4 2 3 3 4 1 3 5 7 7 7 8 8 9 11 13 15 17 17 17 17 16 17 17 16 16 16 16 15 16 18 18 18 17
2 3 4 6 3 7 6 3 1 3 2 2 3 5 2 3 6 7 9 7 7 8 10 10 12 14 15 16 17 17 16 16 15 15 16 16 17 17 17 17 18 19 19 18
3 2 3 4 3 4 5 5 2 1 0 3 4 8 8 11 13 15 13 9 8 10 12 14 15 14 15 15 16 16 16 14 15 15 14 14 15 16 17 16 17 17 17 18
4 1 2 4 3 2 2 3 3 3 2 2 6 7 7 8 8 9 7 8 11 13 15 15 15 15 15 15 15 15 14 13 14 14 13 12 13 14 14 15 16 16 15 16
3 3 4 5 5 4 4 5 4 3 1 4 6 7 6 8 7 9 5 11 13 14 14 15 16 16 16 14 15 15 13 13 14 14 14 13 13 13 13 14 13 15 14 13
3 2 2 4 6 3 2 2 2 2 3 3 4 7 9 10 12 10 8 11 13 13 13 14 14 13 13 12 13 13 13 13 13 13 14 14 13 13 13 15 14 13 13 11
4 3 2 2 5 0 3 2 2 4 6 2 5 8 9 9 11 2 6 9 11 11 10 9 9 10 9 9 11 11 11 12 13 13 14 14 13 13 13 14 14 13 10 10
3 4 3 3 2 6 3 3 4 4 5 2 6 9 8 9 6 2 6 8 9 8 7 6 7 8 9 10 11 10 10 12 12 13 14 14 13 13 12 13 13 11 10 9
4 5 5 3 1 5 4 5 4 0 5 5 5 6 7 9 9 3 7 8 7 6 7 8 8 7 8 10 10 9 10 12 13 14 13 13 12 12 10 12 12 11 10 11
1 3 3 3 4 8 6 5 2 3 6 8 3 2 4 4 5 8 8 7 7 7 7 8 8 7 7 9 10 10 10 12 13 13 13 13 13 11 9 11 10 10 10 10
6 4 4 4 4 9 5 1 2 6 6 4 2 2 4 7 7 7 8 8 8 8 8 8 8 8 7 9 10 10 10 12 13 13 13 13 12 11 11 11 11 10 9 9
6 7 6 8 8 5 3 4 4 4 3 1 1 2 4 4 5 7 8 7 7 7 8 8 8 8 7 8 10 10 11 12 13 13 13 12 12 10 10 10 10 9 8 9
3 3 4 4 5 4 3 2 2 1 2 3 1 1 0 2 4 5 7 8 8 8 8 8 8 8 8 9 11 9 11 12 12 11 11 9 8 10 9 9 9 9 9 9
6 4 3 4 5 3 2 2 1 4 4 3 1 2 2 2 3 4 4 6 7 9 9 8 8 9 10 10 10 11 11 11 10 9 9 9 8 8 7 7 8 10 7 12
4 6 7 7 6 4 3 1 3 4 3 2 2 3 3 3 2 4 4 5 6 7 8 10 10 11 10 10 10 10 10 10 9 10 9 7 6 6 6 5 6 13 14 18
Wind_Direction
34 53 25 343 358 292 243 254 280 268 30 60 103 96 81 65 66 56 42 33 30 20 3 360 356 350 353 354 351 350 351 344 343 346 348 353 355 349 344 343 342 340 336 324
42 29 331 18 39 43 38 60 351 325 350 60 98 90 83 65 62 54 47 37 25 14 4 359 355 350 347 345 344 342 339 329 326 320 311 314 318 312 314 320 333 336 333 328
82 345 352 55 32 15 359 151 277 286 327 71 117 98 96 65 63 55 43 35 22 12 359 354 354 352 354 356 355 352 343 338 333 326 314 314 311 309 337 343 340 336 331 324
55 5 26 30 20 9 310 261 273 276 305 275 168 146 149 87 55 37 24 21 13 359 353 352 358 1 3 359 357 352 345 343 341 340 334 337 345 338 332 330 327 327 326 324
43 16 28 14 338 330 278 287 286 255 192 298 8 100 96 45 41 17 9 13 6 354 351 355 2 358 352 346 349 346 340 338 338 340 339 340 342 332 328 328 323 321 320 319
27 31 38 337 323 333 311 342 23 65 83 52 33 115 50 26 33 7 10 9 356 346 348 358 0 354 347 345 346 343 341 339 342 348 354 352 344 337 333 331 324 321 316 312
353 359 357 0 357 358 17 31 20 7 7 277 59 93 116 102 72 40 23 1 345 338 348 2 359 353 346 347 347 346 346 348 356 360 356 344 339 336 331 329 325 321 315 311
19 339 343 357 5 335 360 66 88 306 278 296 21 117 157 155 85 43 24 352 349 351 1 2 356 351 343 343 346 347 348 351 353 351 347 341 343 338 331 329 324 317 311 306
31 297 313 332 338 25 15 58 159 178 287 281 272 130 184 76 29 17 3 354 353 349 355 352 351 349 342 339 345 348 350 353 350 349 344 340 341 336 332 329 323 317 311 305
120 292 303 314 5 17 75 112 57 46 314 298 300 106 330 350 353 351 346 342 341 344 346 349 354 350 344 346 352 353 358 356 348 344 341 339 337 335 331 325 320 315 310 305
54 10 316 3 30 339 8 44 50 35 209 256 292 312 57 33 354 332 328 337 341 344 347 351 352 348 350 355 354 352 355 353 346 342 340 339 338 333 327 325 324 319 313 309
22 97 297 279 288 356 68 78 86 31 298 254 251 254 83 65 300 309 327 338 336 337 336 342 348 349 352 352 350 350 351 350 344 339 339 340 338 332 330 335 335 332 326 319
39 89 346 351 349 11 32 38 157 167 183 242 250 262 155 331 328 342 349 355 342 339 342 349 353 352 353 353 349 346 345 345 339 339 342 344 342 337 339 343 343 345 343 339
92 99 171 232 286 345 321 324 303 120 250 279 263 295 317 340 344 342 343 351 343 342 349 353 352 351 351 351 347 342 339 339 337 337 338 341 341 340 341 342 345 350 353 354
80 59 307 287 333 330 319 2 36 59 59 258 285 293 296 314 308 312 323 340 344 348 352 354 352 350 347 347 344 340 336 337 337 337 336 335 337 339 341 344 346 350 357 2
74 69 9 322 12 19 56 30 50 58 23 298 300 295 284 297 300 323 348 350 349 349 351 352 351 348 344 345 341 337 335 339 340 340 338 337 340 342 342 342 346 349 353 1
70 76 53 290 324 61 16 346 43 313 275 278 289 283 301 312 319 328 354 354 348 346 350 351 349 344 340 340 336 335 338 339 342 342 340 339 340 342 345 347 347 347 350 352
119 116 134 305 21 98 242 223 213 265 269 266 279 282 286 294 300 8 29 356 346 346 349 346 341 333 330 330 330 332 335 339 341 342 343 341 341 342 343 346 347 343 344 349
126 131 103 84 351 285 274 268 271 283 281 231 277 290 307 315 297 152 28 1 344 350 353 341 333 325 329 330 328 332 339 342 343 343 341 339 340 341 347 349 346 343 343 348
70 92 104 104 281 262 231 256 282 4 288 263 273 299 318 332 336 321 7 355 351 6 2 350 338 332 337 335 333 333 341 344 344 341 338 336 338 338 346 348 345 345 348 353
86 78 122 166 229 264 250 272 47 75 279 289 291 296 312 310 293 322 349 352 2 11 357 346 336 329 327 332 337 339 341 342 339 338 338 340 340 339 350 346 344 344 349 353
180 168 190 163 212 260 244 222 168 239 257 272 273 282 287 292 313 335 345 350 360 356 351 346 340 332 327 335 340 340 341 337 337 338 340 340 343 349 354 343 343 344 348 346
193 187 185 189 213 227 228 225 226 234 273 300 168 277 291 309 329 344 349 350 352 348 346 342 335 330 332 336 340 338 339 338 339 339 340 340 346 347 346 343 343 346 351 348
249 154 155 228 254 244 247 234 310 28 97 112 137 249 48 330 341 356 351 350 348 344 344 337 334 335 337 338 340 332 333 337 337 337 336 337 345 345 343 346 349 351 353 355
219 175 178 243 275 311 304 348 41 105 110 119 117 119 91 54 26 359 341 347 344 342 338 337 334 337 336 333 330 330 332 331 332 332 332 334 343 337 334 341 346 351 345 357
201 174 175 216 220 199 259 314 127 141 148 159 151 114 77 73 35 360 350 343 339 338 337 337 338 338 331 326 323 322 326 326 327 336 334 328 331 332 332 327 337 346 352 355